Dewpoint
23 28 17 12 18 20 15 8 -6 4 12 12 9 5 12 16 12 14 15 17 19 20 21 23 25 25 27 28 28 32 31 32 32 32 33 34 33 31 31 33 34 36 36 37
11 18 22 17 15 19 16 12 15 13 6 6 5 10 17 17 18 20 22 23 23 23 23 24 24 25 27 27 27 31 32 32 32 33 32 33 31 29 31 31 34 34 34 35
8 17 11 5 10 17 20 18 9 7 9 15 16 19 21 21 22 21 22 22 22 22 23 22 23 24 25 27 28 28 30 32 32 32 31 32 29 28 29 30 33 32 32 32
18 13 -4 3 17 14 16 18 19 18 18 20 19 22 22 21 20 20 20 20 21 21 21 21 23 23 23 25 26 28 29 31 32 32 31 30 26 26 28 30 31 30 31 32
7 12 12 15 10 9 7 20 21 21 21 21 21 21 22 23 23 21 21 21 22 22 22 22 21 21 22 23 24 27 28 30 31 31 30 28 26 26 27 29 30 30 29 31
20 9 -5 16 14 13 11 19 22 22 23 23 22 18 22 24 25 25 27 28 31 30 26 25 24 24 23 21 21 22 24 27 30 32 30 27 26 26 28 29 28 29 30 30
19 16 19 22 15 13 10 14 24 25 25 23 22 24 25 28 31 33 33 33 33 32 33 35 35 35 34 30 31 31 26 25 29 34 31 28 27 27 27 27 29 28 28 29
21 19 12 22 19 14 21 26 25 24 25 25 26 27 28 29 29 32 31 32 31 31 32 34 34 34 34 34 36 37 38 34 31 32 29 28 27 28 27 28 27 28 27 29
20 20 24 24 23 26 26 24 24 24 25 25 25 25 25 26 26 27 29 29 29 30 30 30 31 33 33 34 35 35 36 36 36 34 31 31 29 27 28 29 28 27 28 28
23 24 24 26 26 25 25 24 24 24 24 24 23 24 24 25 25 26 28 29 30 28 27 29 29 31 33 34 35 35 34 34 34 35 34 33 33 32 30 29 28 28 28 28
23 25 25 26 26 25 24 23 21 22 22 22 23 23 24 25 25 26 27 29 26 14 22 28 28 28 30 32 33 33 34 34 34 34 34 34 34 34 34 33 30 27 28 30
20 25 25 25 26 25 22 22 22 20 22 22 21 22 20 20 22 21 21 20 12 11 15 23 27 27 29 31 32 31 31 32 33 34 34 34 33 33 33 32 31 30 30 30
25 26 26 26 26 25 25 22 21 19 19 17 19 19 19 20 21 20 20 18 16 15 15 18 20 25 27 30 31 29 29 31 32 31 32 33 33 32 31 32 30 30 29 29
28 26 24 25 24 26 19 18 18 18 18 19 19 19 18 18 19 20 20 18 16 16 18 20 23 24 26 28 29 29 28 30 32 32 32 31 32 32 32 31 30 29 29 29
25 25 25 25 19 17 17 17 17 17 18 19 19 19 20 19 20 20 19 16 16 19 22 23 24 25 27 28 29 30 29 29 30 31 32 32 33 32 32 31 30 28 28 28
22 21 20 18 18 17 16 17 17 18 20 20 21 21 21 22 23 20 17 18 20 22 24 25 25 26 27 30 29 29 29 29 29 28 31 31 31 30 31 30 28 27 26 26
19 18 19 20 21 21 23 23 24 24 24 23 23 23 23 23 21 18 20 22 24 25 25 25 26 30 31 28 29 28 28 28 31 31 31 31 31 31 30 28 26 25 24 25
22 22 22 22 23 23 22 22 23 25 24 25 24 24 24 22 19 20 23 24 25 25 26 30 29 27 26 25 28 25 23 24 26 27 28 28 29 29 28 25 25 24 23 24
20 21 22 23 20 19 21 22 22 23 24 24 24 24 25 22 21 22 24 24 25 25 28 26 26 25 23 23 23 23 21 21 22 22 22 23 22 23 23 23 23 23 22 22
19 20 19 19 19 19 20 21 22 23 24 25 25 25 24 20 21 23 24 24 25 27 27 25 25 23 22 23 23 21 20 21 21 21 21 21 21 21 21 21 21 21 21 21
16 17 16 16 18 20 19 20 21 22 24 25 25 24 23 22 23 22 24 24 24 26 24 24 23 21 21 22 20 20 20 21 20 20 20 20 20 20 20 20 20 20 20 20
18 16 13 14 16 17 17 20 22 22 22 23 24 23 22 22 22 23 24 25 24 25 25 24 22 21 20 19 20 20 20 20 20 21 19 19 18 18 17 17 18 18 18 19
17 17 16 16 16 17 19 19 18 19 20 22 23 23 23 24 24 24 23 24 23 25 24 21 21 19 17 19 20 19 19 19 20 19 17 17 18 18 17 17 18 18 17 18
17 17 18 18 19 19 18 20 21 22 22 23 24 23 25 26 25 25 25 24 23 24 20 20 19 17 16 18 18 18 18 18 19 18 16 16 17 17 17 17 17 17 18 20
18 18 18 19 20 21 22 22 23 23 23 23 23 24 25 28 26 25 24 23 24 21 19 18 16 14 16 17 17 17 18 15 14 15 16 16 16 15 15 16 18 17 14 15
18 19 20 21 22 23 23 23 23 22 22 22 22 23 27 27 23 23 24 22 20 18 16 14 14 14 15 16 16 16 13 13 15 15 13 14 14 16 15 13 14 15 16 15
20 20 21 22 23 23 24 23 22 21 23 23 23 26 27 23 24 22 20 18 16 13 12 12 13 14 15 14 13 12 13 14 12 12 14 15 12 12 14 13 14 13 11 10
Wind_Speed
4 4 5 5 8 14 15 8 8 3 8 10 12 16 11 9 6 5 7 8 12 15 13 13 16 19 16 14 11 14 17 16 16 14 12 11 9 9 8 7 9 8 9 10
0 6 7 7 11 16 17 8 15 9 15 17 20 13 15 12 7 15 15 14 16 18 18 17 15 14 13 15 17 17 18 21 19 16 15 14 13 11 8 7 8 7 8 10
4 3 2 12 18 17 9 8 12 15 17 9 10 12 18 17 15 14 14 15 17 16 16 17 17 15 17 20 21 20 21 23 22 21 20 18 15 12 11 9 7 9 9 10
4 2 6 4 5 13 15 4 18 3 5 9 6 12 17 13 13 13 14 16 17 16 18 18 15 18 19 19 19 20 22 23 22 23 20 19 18 16 12 9 10 10 10 12
4 6 6 2 2 8 9 6 9 13 10 9 4 3 2 17 14 11 13 14 15 16 18 18 21 23 22 20 20 20 22 22 24 24 23 22 21 18 14 11 12 12 10 11
3 4 6 2 4 5 7 6 5 14 12 11 12 8 8 19 18 21 22 23 24 25 23 23 27 26 23 23 22 22 21 23 23 23 23 24 23 18 13 12 14 12 12 11
6 6 7 9 6 4 7 6 7 15 12 14 9 2 7 14 17 17 16 20 21 22 20 20 24 25 24 23 24 28 27 26 23 22 25 22 16 12 13 13 15 13 13 12
5 5 7 4 5 6 11 10 11 12 10 12 10 10 12 13 15 15 18 19 20 19 20 21 23 23 23 23 24 26 28 28 27 21 15 12 14 14 18 16 14 14 13 13
12 7 1 8 14 11 12 14 9 12 10 12 11 10 9 10 11 13 13 13 15 16 17 18 19 20 22 23 23 23 23 24 22 19 13 13 15 14 9 12 12 11 12 14
7 9 15 16 14 14 13 14 10 9 8 8 6 5 4 4 7 8 9 11 14 18 20 21 20 20 18 19 21 20 18 17 20 23 20 12 7 9 10 12 10 10 12 13
7 10 16 10 11 11 11 8 7 4 2 3 3 1 2 5 8 10 11 10 13 19 19 20 19 20 19 18 19 21 20 17 13 10 15 19 14 12 12 12 11 10 12 10
5 6 7 10 8 7 7 3 1 2 6 9 10 9 9 9 9 9 11 13 18 19 21 23 23 23 24 19 20 23 22 19 17 15 11 10 10 11 13 12 12 9 10 10
8 13 19 13 8 6 5 8 12 13 11 10 10 9 9 8 8 11 14 19 22 23 23 24 24 23 24 21 21 23 23 22 20 18 17 15 12 11 12 13 11 13 14 16
15 12 10 8 5 8 12 11 11 9 8 8 6 6 8 11 11 13 15 18 20 21 23 24 24 26 25 24 23 23 23 21 20 20 18 16 15 14 12 12 13 16 10 13
13 13 10 7 11 9 8 8 9 8 7 5 8 9 12 15 16 15 16 19 19 20 22 23 24 26 24 22 22 23 23 21 21 18 20 18 15 14 13 13 14 15 15 12
13 12 11 9 6 6 7 8 6 7 7 6 10 11 14 15 14 16 18 18 19 21 22 22 24 24 23 21 22 23 22 23 22 24 20 21 16 14 13 12 13 15 14 14
11 9 10 12 14 13 13 11 11 7 8 12 15 14 16 15 14 16 17 18 19 20 22 21 23 20 19 19 19 18 20 22 22 21 22 22 21 14 11 12 13 15 16 13
15 12 10 9 10 10 10 11 12 11 14 13 15 17 17 16 19 18 18 20 20 22 19 12 16 20 19 18 17 18 20 21 20 19 16 17 15 13 11 12 14 15 16 15
14 13 13 12 13 13 13 13 13 16 17 17 19 19 16 17 17 16 18 19 19 22 13 15 17 18 18 17 18 17 19 20 19 18 17 17 16 14 13 14 15 15 15 16
12 12 11 11 12 11 13 15 16 17 18 17 18 17 18 20 18 17 16 19 16 15 14 17 17 17 17 17 17 16 17 17 18 17 16 16 15 15 15 15 15 16 16 16
7 7 9 12 13 14 16 17 17 18 19 18 19 20 19 19 17 17 14 16 18 11 16 17 15 16 15 16 17 15 16 17 17 17 17 17 16 16 16 16 16 16 17 17
4 6 11 14 15 17 19 18 17 20 21 21 21 19 19 19 18 18 13 12 16 17 14 14 15 16 19 21 14 15 17 18 17 15 16 17 17 17 17 17 17 17 18 18
9 11 14 16 18 18 18 20 22 21 22 21 21 22 18 14 15 13 18 12 12 14 14 14 16 20 22 15 15 15 17 18 17 15 17 18 18 17 18 18 18 18 19 19
11 14 14 16 15 17 20 20 20 20 20 22 21 21 16 12 15 9 13 17 17 14 15 15 16 21 21 15 15 16 16 17 17 17 19 20 18 17 18 19 20 20 19 15
12 11 12 16 15 15 16 17 17 17 19 19 21 21 13 8 11 15 14 13 13 15 14 15 18 20 15 15 15 17 14 17 19 19 19 19 19 19 19 19 19 16 24 20
12 12 13 15 15 15 15 15 16 18 18 20 22 17 12 12 12 11 9 13 13 12 14 16 15 16 14 15 17 14 19 18 17 18 20 19 19 18 18 21 21 19 19 19
12 13 14 14 14 13 13 15 18 21 20 20 22 21 9 10 7 10 12 12 11 15 15 15 15 15 16 16 17 18 17 17 19 20 20 15 19 20 18 20 20 18 22 24
Wind_Direction
150 153 163 173 185 189 203 186 214 193 206 233 279 292 281 283 235 243 257 273 284 275 271 263 248 248 251 247 246 218 218 220 228 232 242 247 238 246 269 289 301 300 311 304
283 218 224 244 231 209 216 227 245 254 275 257 269 278 285 276 23 32 39 28 15 13 3 347 316 289 266 251 248 233 232 227 230 229 236 233 226 237 242 259 278 281 303 304
194 43 22 279 237 205 197 199 219 235 250 302 315 61 73 47 36 26 12 2 353 347 343 339 334 320 303 286 275 262 246 233 232 229 232 228 222 225 239 249 245 263 279 290
156 110 231 246 306 193 197 277 213 15 107 60 94 127 70 48 21 5 355 347 339 332 327 323 313 307 301 297 291 279 268 253 242 234 232 225 219 228 232 237 240 253 268 274
192 212 304 273 134 156 170 60 77 109 77 54 22 141 94 13 359 345 334 327 315 306 302 301 303 302 298 300 298 295 287 271 256 236 232 220 222 227 232 238 245 250 256 266
156 222 231 228 177 136 103 167 105 101 74 60 55 12 327 340 354 1 6 15 13 3 352 343 339 332 320 311 304 297 291 286 271 243 228 224 222 223 228 238 248 245 256 255
190 240 280 254 185 126 207 192 110 96 89 69 72 105 324 11 28 20 10 9 6 3 357 351 357 354 353 348 344 328 314 303 285 252 238 220 219 225 236 236 246 241 247 263
162 222 274 235 203 215 135 114 117 93 86 83 76 54 32 24 15 17 7 6 6 3 358 354 354 353 348 345 335 332 334 315 293 263 224 221 223 244 245 233 231 241 255 259
190 219 38 54 114 106 127 118 108 95 89 89 75 58 36 22 15 6 2 360 357 354 346 345 348 348 340 333 335 336 339 340 330 309 274 259 249 245 240 273 260 259 257 261
162 102 107 104 99 103 104 108 106 107 107 93 86 74 42 13 357 345 341 351 350 346 340 333 333 328 323 325 327 327 334 347 354 331 316 323 342 329 315 277 261 270 270 272
81 116 96 101 114 113 104 113 90 74 120 131 118 7 352 352 343 338 340 346 339 333 321 313 317 316 312 316 324 323 320 317 324 339 348 347 340 332 312 295 270 280 284 277
178 143 123 133 117 104 91 85 250 324 21 54 51 48 36 17 7 0 341 336 334 330 323 318 318 318 315 320 320 317 311 312 312 305 298 289 289 295 297 287 304 298 280 268
129 104 115 124 107 71 38 47 68 72 64 56 58 53 33 2 341 336 339 335 331 325 316 315 315 317 316 319 316 314 309 306 305 307 304 295 285 279 287 295 287 285 287 285
113 107 81 77 88 33 72 65 61 58 57 79 71 38 9 347 335 331 324 322 322 319 316 316 319 317 318 317 314 314 312 306 300 292 289 287 286 285 287 290 301 304 286 270
92 97 114 86 71 55 52 45 29 11 8 21 12 3 350 337 325 318 321 322 321 317 314 317 316 310 312 313 313 310 309 304 296 291 289 280 277 275 279 282 285 285 287 286
91 85 79 75 53 23 14 359 348 343 0 5 346 332 330 318 314 318 316 315 316 315 311 309 305 305 315 316 316 315 312 307 306 299 292 283 262 269 270 274 285 291 291 294
90 60 46 39 29 11 8 20 21 6 339 326 314 310 314 311 311 311 314 314 308 301 298 308 312 323 323 321 324 339 334 322 318 316 300 284 263 249 251 271 283 294 295 294
87 76 62 41 24 24 2 346 333 327 320 313 306 305 307 307 310 309 307 304 306 306 312 335 325 325 327 329 340 336 327 319 318 318 327 344 343 329 311 300 295 296 296 296
52 41 30 30 14 2 349 341 331 317 307 303 299 294 292 295 299 300 301 305 317 317 320 325 327 325 326 329 328 324 320 318 320 323 328 329 328 324 321 312 306 301 300 302
45 33 22 7 357 346 330 319 314 311 302 298 294 288 298 302 299 298 311 312 300 295 318 316 319 322 320 319 321 315 312 314 316 318 319 319 318 316 309 303 302 305 308 305
29 10 356 338 326 318 315 312 312 308 302 299 304 298 293 292 299 306 311 309 310 298 316 312 313 316 317 317 319 311 312 314 316 317 317 314 314 313 314 313 309 308 303 302
338 332 323 316 312 312 317 313 306 305 308 307 301 297 296 302 306 303 283 268 299 305 312 314 315 317 321 321 314 316 317 315 310 311 321 319 317 316 312 309 307 306 306 303
316 308 311 310 314 313 315 316 314 309 305 303 298 294 289 290 287 291 304 302 301 303 314 309 310 320 320 320 315 316 315 313 305 318 316 311 304 302 303 303 303 305 301 298
315 318 319 313 315 325 324 317 312 309 303 300 296 288 276 277 293 270 264 280 299 313 310 307 312 319 322 316 316 315 314 316 318 314 312 309 307 305 306 307 303 298 295 306
315 310 319 322 321 315 309 309 307 310 305 303 302 296 275 280 277 296 304 309 312 311 313 318 317 317 318 315 315 312 316 322 314 313 308 307 310 309 306 304 304 316 307 298
314 308 312 310 307 306 304 306 307 308 306 308 308 299 283 297 298 310 312 311 321 332 331 323 318 317 314 318 317 322 317 314 311 314 312 306 304 305 312 309 302 303 307 308
316 313 317 319 316 313 315 318 315 312 310 306 302 305 300 312 331 324 324 337 346 337 326 317 315 314 317 317 320 316 312 316 314 307 303 310 315 304 304 308 308 313 309 303